Location: Betzi
(47.2343°N, 9.5260°E)
Time: 22:48:16
(UTC+00:00)

ARIANE 5 R/B - Pass Details

Date: 27 May 2022
Orbit: 747 x 795 km, 98.7° (Epoch: 29 June)

Event Time Altitude Azimuth Distance (km) Brightness Sun altitude
Rises 02:44:54 0° 18° (NNE) 3,245 7.0 -7.3°
Reaches altitude 10° 02:47:18 10° 24° (NNE) 2,307 6.2 -7.0°
Maximum altitude 02:52:14 51° 100° (E) 953 3.3 -6.4°
Drops below altitude 10° 02:57:05 10° 176° (S) 2,267 4.6 -5.8°
Sets 02:59:25 0° 182° (S) 3,183 5.3 -5.5°
